Location: Rounton
(54.4000°N, 1.3500°W)
Time: 02:44:22
(UTC+00:00)

Altair - Pass Details

Date: 04 December 2021
Orbit: 1501 x 1683 km, 47.2° (Epoch: 19 January)

Event Time Altitude Azimuth Distance (km) Brightness Sun altitude
Rises 17:21:08 0° 246° (WSW) 4,746 12.1 -13.2°
Reaches altitude 10° 17:24:19 10° 242° (WSW) 3,739 11.0 -13.6°
Maximum altitude 17:33:20 54° 169° (S) 1,805 7.9 -14.8°
Enters shadow 17:40:34 16° 99° (E) 3,179 8.6 -15.9°
